Date String (YYYY-MM-DD hh:mm:ss) UTC,Instrument flags,absolute air pressure of the measurement (hPa),sample flow rate (lpm),inlet stack bypass flow (lpm),air temperature of the measurement (°C),ambient temperature measured by the external sensor (°C),aerosol sample conditioner tube jacket temperature (°C),OPC LED temperature (°C),internal box temperature (°C),relative humidity of the measurement (%),span deviation,mass concentration of particles derived from Lorenz-Mie calculation of OPC scattering (μg/m³),mass concentration of particles derived from Lorenz-Mie calculation of OPC scattering (μg/m³),mass concentration of particles derived from Lorenz-Mie calculation of OPC scattering (μg/m³)
DateTimeUTC,F1_M11,P_M11,Q1_M11,Q2_M11,T1_M11,T2_M11,T3_M11,T4_M11,T5_M11,U1_M11,ZSPAN_M11,X0_M11,X2_M11,X1_M11
2023-11-20 18:00:00,SystemResetWarning,0833.9,5.00,000.00,022.6,021.7,000.0,030.8,023.9,15.8,0000.0,0005.49,0001.13,0000.93
2023-11-20 18:01:00,SystemResetWarning,0834.0,5.00,000.00,022.6,021.7,000.0,030.9,023.9,15.9,0000.0,0005.90,0001.13,0000.93
2023-11-20 18:02:00,SystemResetWarning,0833.9,5.00,000.00,022.6,021.7,000.0,030.9,024.0,15.9,0000.0,0006.18,0001.14,0000.94
2023-11-20 18:03:00,SystemResetWarning,0834.0,4.99,000.00,022.7,021.7,000.0,030.9,024.0,15.9,0000.0,0006.10,0001.13,0000.94
2023-11-20 18:04:00,SystemResetWarning,0833.9,5.00,000.00,022.6,021.7,000.0,030.9,023.9,16.0,0000.0,0005.15,0001.12,0000.93
2023-11-20 18:05:00,SystemResetWarning,0833.9,5.00,000.00,022.7,021.8,000.0,030.9,024.0,15.8,0000.0,0004.94,0001.08,0000.92
2023-11-20 18:06:00,SystemResetWarning,0833.9,5.01,000.00,022.7,021.8,000.0,030.9,024.0,15.8,0000.0,0003.62,0001.07,0000.90
2023-11-20 18:07:00,SystemResetWarning,0834.0,5.01,000.00,022.7,021.8,000.0,030.9,024.0,15.8,0000.0,0003.12,0001.06,0000.90
2023-11-20 18:08:00,SystemResetWarning,0834.0,5.00,000.00,022.7,021.8,000.0,030.9,024.0,15.8,0000.0,0003.08,0001.07,0000.89
2023-11-20 18:09:00,SystemResetWarning,0834.0,4.99,000.00,022.7,021.8,000.0,030.9,024.0,15.8,0000.0,0003.26,0001.10,0000.89
2023-11-20 18:10:00,SystemResetWarning,0834.0,4.99,000.00,022.7,021.8,000.0,030.9,024.0,15.8,0000.0,0003.26,0001.10,0000.89
2023-11-20 18:11:00,SystemResetWarning,0834.0,5.02,000.00,022.7,021.8,000.0,030.9,024.0,15.8,0000.0,0003.27,0001.11,0000.89
2023-11-20 18:12:00,SystemResetWarning,0834.0,5.01,000.00,022.7,021.8,000.0,030.9,024.0,15.8,0000.0,0002.99,0001.13,0000.88
2023-11-20 18:13:00,SystemResetWarning,0834.0,4.99,000.00,022.7,021.8,000.0,030.9,024.0,15.9,0000.0,0002.56,0001.13,0000.88
2023-11-20 18:14:00,SystemResetWarning,0834.0,4.99,000.00,022.7,021.8,000.0,030.9,024.0,15.9,0000.0,0002.63,0001.14,0000.88
2023-11-20 18:15:00,SystemResetWarning,0834.0,5.00,000.00,022.7,021.8,000.0,030.9,024.0,15.9,0000.0,0002.67,0001.16,0000.88
2023-11-20 18:16:00,SystemResetWarning,0834.0,4.99,000.00,022.7,021.8,000.0,030.9,024.0,15.8,0000.0,0002.28,0001.19,0000.89
2023-11-20 18:17:00,SystemResetWarning,0834.0,5.00,000.00,022.7,021.8,000.0,030.9,024.0,15.8,0000.0,0002.19,0001.19,0000.91
2023-11-20 18:18:00,SystemResetWarning,0834.0,4.99,000.00,022.7,021.8,000.0,030.9,024.0,15.8,0000.0,0002.22,0001.22,0000.92
2023-11-20 18:19:00,SystemResetWarning,0834.0,5.00,000.00,022.7,021.8,000.0,030.9,024.0,15.8,0000.0,0002.24,0001.22,0000.92
2023-11-20 18:20:00,SystemResetWarning,0834.1,5.00,000.00,022.7,021.8,000.0,030.9,024.0,15.9,0000.0,0001.96,0001.18,0000.93
2023-11-20 18:21:00,SystemResetWarning,0834.1,5.01,000.00,022.7,021.8,000.0,030.9,024.0,16.0,0000.0,0002.06,0001.20,0000.94
2023-11-20 18:22:00,SystemResetWarning,0834.0,5.01,000.00,022.7,021.8,000.0,030.9,024.0,15.9,0000.0,0002.16,0001.22,0000.96
2023-11-20 18:23:00,SystemResetWarning,0834.1,5.00,000.00,022.7,021.8,000.0,030.9,024.0,15.8,0000.0,0002.25,0001.25,0000.97
2023-11-20 18:24:00,SystemResetWarning,0834.1,5.00,000.00,022.7,021.8,000.0,031.0,024.0,15.8,0000.0,0002.29,0001.26,0000.99
2023-11-20 18:25:00,SystemResetWarning,0834.1,5.00,000.00,022.7,021.8,000.0,031.0,024.0,15.8,0000.0,0002.26,0001.25,0001.00
2023-11-20 18:26:00,SystemResetWarning,0834.1,5.00,000.00,022.7,021.8,000.0,031.0,024.0,15.9,0000.0,0002.23,0001.26,0001.01
2023-11-20 18:27:00,SystemResetWarning,0834.1,4.99,000.00,022.7,021.8,000.0,031.0,024.0,16.0,0000.0,0002.12,0001.24,0001.01
2023-11-20 18:28:00,SystemResetWarning,0834.1,5.00,000.00,022.7,021.8,000.0,031.0,024.0,15.9,0000.0,0002.06,0001.24,0001.00
2023-11-20 18:29:00,SystemResetWarning,0834.1,5.00,000.00,022.8,021.8,000.0,031.0,024.0,15.8,0000.0,0002.07,0001.26,0001.00
2023-11-20 18:30:00,SystemResetWarning,0834.1,4.99,000.00,022.8,021.8,000.0,031.0,024.0,15.7,0000.0,0002.03,0001.23,0000.99
2023-11-20 18:31:00,SystemResetWarning,0834.1,5.00,000.00,022.8,021.8,000.0,031.0,024.0,15.6,0000.0,0002.14,0001.27,0000.97
2023-11-20 18:32:00,SystemResetWarning,0834.0,5.00,000.00,022.8,021.8,000.0,031.0,024.0,15.6,0000.0,0002.15,0001.27,0000.96
2023-11-20 18:33:00,SystemResetWarning,0834.1,5.01,000.00,022.8,021.8,000.0,031.0,024.0,15.5,0000.0,0002.16,0001.28,0000.95
2023-11-20 18:34:00,SystemResetWarning,0834.1,4.99,000.00,022.8,021.8,000.0,031.0,024.0,15.5,0000.0,0002.17,0001.28,0000.94
2023-11-20 18:35:00,SystemResetWarning,0834.1,5.00,000.00,022.8,021.8,000.0,031.0,024.0,15.5,0000.0,0002.09,0001.26,0000.93
2023-11-20 18:36:00,SystemResetWarning,0834.0,5.00,000.00,022.8,021.8,000.0,031.0,024.0,15.5,0000.0,0002.04,0001.24,0000.92
2023-11-20 18:37:00,SystemResetWarning,0834.1,5.00,000.00,022.8,021.8,000.0,031.0,024.1,15.5,0000.0,0001.98,0001.24,0000.91
2023-11-20 18:38:00,SystemResetWarning,0834.1,5.01,000.00,022.8,021.8,000.0,031.0,024.0,15.6,0000.0,0001.98,0001.26,0000.91
2023-11-20 18:39:00,SystemResetWarning,0834.1,5.01,000.00,022.8,021.8,000.0,031.0,024.1,15.5,0000.0,0002.01,0001.26,0000.91
2023-11-20 18:40:00,SystemResetWarning,0834.1,4.99,000.00,022.8,021.8,000.0,031.0,024.1,15.5,0000.0,0001.93,0001.21,0000.91
2023-11-20 18:41:00,SystemResetWarning,0834.1,4.99,000.00,022.8,021.8,000.0,031.0,024.1,15.6,0000.0,0001.91,0001.20,0000.90
2023-11-20 18:42:00,SystemResetWarning,0834.1,4.99,000.00,022.8,021.8,000.0,031.0,024.1,15.6,0000.0,0001.80,0001.17,0000.91
2023-11-20 18:43:00,SystemResetWarning,0834.1,5.00,000.00,022.8,021.8,000.0,031.0,024.1,15.6,0000.0,0001.74,0001.16,0000.92
2023-11-20 18:44:00,SystemResetWarning,0834.1,5.00,000.00,022.8,021.8,000.0,031.0,024.1,15.6,0000.0,0001.57,0001.11,0000.92
2023-11-20 18:45:00,SystemResetWarning,0834.1,5.01,000.00,022.8,021.8,000.0,031.0,024.1,15.5,0000.0,0001.49,0001.09,0000.92
2023-11-20 18:46:00,SystemResetWarning,0834.1,5.00,000.00,022.8,021.8,000.0,031.0,024.1,15.6,0000.0,0001.50,0001.09,0000.91
2023-11-20 18:47:00,SystemResetWarning,0834.1,5.01,000.00,022.8,021.9,000.0,031.0,024.1,15.5,0000.0,0001.58,0001.09,0000.92
2023-11-20 18:48:00,SystemResetWarning,0834.1,5.00,000.00,022.8,021.9,000.0,031.0,024.1,15.6,0000.0,0001.52,0001.07,0000.92
2023-11-20 18:49:00,SystemResetWarning,0834.1,5.00,000.00,022.8,021.9,000.0,031.0,024.1,15.6,0000.0,0001.43,0001.04,0000.92
2023-11-20 18:50:00,SystemResetWarning,0834.0,4.99,000.00,022.8,021.9,000.0,031.0,024.1,15.5,0000.0,0001.40,0001.02,0000.91
2023-11-20 18:51:00,SystemResetWarning,0834.0,4.98,000.00,022.8,021.9,000.0,031.0,024.1,15.4,0000.0,0001.44,0001.03,0000.91
2023-11-20 18:52:00,SystemResetWarning,0834.0,4.99,000.00,022.8,021.9,000.0,031.0,024.1,15.2,0000.0,0001.53,0001.05,0000.90
2023-11-20 18:53:00,SystemResetWarning,0834.0,5.00,000.00,022.8,021.9,000.0,031.0,024.1,15.3,0000.0,0001.56,0001.05,0000.89
2023-11-20 18:54:00,SystemResetWarning,0834.1,5.00,000.00,022.8,021.9,000.0,031.0,024.1,15.3,0000.0,0001.55,0001.04,0000.89
2023-11-20 18:55:00,SystemResetWarning,0834.1,5.00,000.00,022.8,021.9,000.0,031.0,024.1,15.3,0000.0,0001.65,0001.06,0000.89
2023-11-20 18:56:00,SystemResetWarning,0834.1,5.01,000.00,022.8,021.9,000.0,031.1,024.1,15.3,0000.0,0002.16,0001.06,0000.88
2023-11-20 18:57:00,SystemResetWarning,0834.0,5.00,000.00,022.8,021.9,000.0,031.1,024.1,15.3,0000.0,0003.30,0001.09,0000.88
2023-11-20 18:58:00,SystemResetWarning,0834.0,5.00,000.00,022.8,021.9,000.0,031.1,024.1,15.2,0000.0,0003.85,0001.13,0000.88
2023-11-20 18:59:00,SystemResetWarning,0834.0,5.00,000.00,022.8,021.9,000.0,031.1,024.1,15.0,0000.0,0003.88,0001.15,0000.88
